WA8SIE Weather Reports


Display with metric or nautical units.
time (UTC)temp
F
wind
direction
speed
MPH
gust
MPH
rain 1hr
in
rain 24hr
in
rain mn
in
humidity
%
barometer
mb
20260509215012 70 193 2.0 0.0 0.00 0.00 0.00 56 1004.3
20260509214511 70 205 12.0 0.0 0.00 0.00 0.00 56 1004.3
20260509214010 70 196 2.0 0.0 0.00 0.00 0.00 56 1004.3
20260509213510 71 199 8.0 0.0 0.00 0.00 0.00 54 1004.3
20260509213010 71 203 2.0 0.0 0.00 0.00 0.00 56 1004.3
20260509212510 71 35 0.0 0.0 0.00 0.00 0.00 55 1004.1
20260509212012 71 209 0.0 0.0 0.00 0.00 0.00 56 1004.1
20260509211011 71 208 0.0 0.0 0.00 0.00 0.00 54 1004.1
20260509210510 71 218 0.0 0.0 0.00 0.00 0.00 57 1004.1
20260509210011 71 198 3.0 0.0 0.00 0.00 0.00 56 1004.1
20260509205512 70 183 0.0 0.0 0.00 0.00 0.00 55 1004.3
20260509205010 70 183 2.0 0.0 0.00 0.00 0.00 59 1004.3
20260509204511 69 183 0.0 0.0 0.00 0.00 0.00 57 1004.3
20260509204014 69 183 0.0 0.0 0.00 0.00 0.00 57 1004.2
20260509203512 69 203 3.0 0.0 0.00 0.00 0.00 58 1004.2
20260509203011 70 193 13.0 0.0 0.00 0.00 0.00 57 1004.2
20260509202510 69 195 0.0 0.0 0.00 0.00 0.00 57 1004.1
20260509201511 70 231 0.0 0.0 0.00 0.00 0.00 56 1004.1
20260509201012 70 231 0.0 0.0 0.00 0.00 0.00 56 1004.1
20260509200510 70 203 0.0 0.0 0.00 0.00 0.00 55 1004.1
20260509195512 70 176 4.0 0.0 0.00 0.00 0.00 55 1004.1
20260509195012 70 167 7.0 0.0 0.00 0.00 0.00 56 1004.1
20260509194010 70 207 1.0 0.0 0.00 0.00 0.00 55 1004.0
20260509193510 70 206 0.0 0.0 0.00 0.00 0.00 54 1004.0
20260509192510 71 205 0.0 0.0 0.00 0.00 0.00 52 1004.1
20260509192010 71 203 4.0 0.0 0.00 0.00 0.00 54 1004.1
20260509191512 71 231 0.0 0.0 0.00 0.00 0.00 54 1004.1
20260509191012 70 191 0.0 0.0 0.00 0.00 0.00 55 1004.3
20260509190512 70 195 1.0 0.0 0.00 0.00 0.00 54 1004.3
20260509190012 71 191 4.0 0.0 0.00 0.00 0.00 54 1004.3
20260509185510 70 186 0.0 0.0 0.00 0.00 0.00 56 1004.3
20260509185010 70 191 3.0 0.0 0.00 0.00 0.00 56 1004.3
20260509184010 70 30 3.0 0.0 0.00 0.00 0.00 56 1004.2
20260509183510 69 188 1.0 0.0 0.00 0.00 0.00 58 1004.2
20260509182510 68 206 6.0 0.0 0.00 0.00 0.00 57 1004.5
20260509182010 68 165 1.0 0.0 0.00 0.00 0.00 58 1004.5
20260509181510 68 216 0.0 0.0 0.00 0.00 0.00 58 1004.5
20260509181011 68 342 0.0 0.0 0.00 0.00 0.00 60 1004.6
20260509180510 68 271 6.0 0.0 0.00 0.00 0.00 59 1004.6
20260509180010 67 112 0.0 0.0 0.00 0.00 0.00 58 1004.6
20260509175511 67 198 0.0 0.0 0.00 0.00 0.00 59 1004.7
20260509175011 68 199 5.0 0.0 0.00 0.00 0.00 58 1004.7
20260509174513 67 324 2.0 0.0 0.00 0.00 0.00 61 1004.7
20260509174011 67 195 0.0 0.0 0.00 0.00 0.00 61 1004.8
20260509173512 66 195 0.0 0.0 0.00 0.00 0.00 60 1004.8
20260509173013 66 176 3.0 0.0 0.00 0.00 0.00 60 1004.8
20260509172511 66 196 0.0 0.0 0.00 0.00 0.00 61 1004.8
20260509172011 66 193 6.0 0.0 0.00 0.00 0.00 59 1004.8
20260509171511 66 296 2.0 0.0 0.00 0.00 0.00 58 1004.8
20260509171011 66 195 0.0 0.0 0.00 0.00 0.00 58 1005.0
20260509170013 66 221 0.0 0.0 0.00 0.00 0.00 60 1005.0
20260509165511 66 208 3.0 0.0 0.00 0.00 0.00 58 1005.1
20260509165011 66 188 1.0 0.0 0.00 0.00 0.00 59 1005.1
20260509164511 66 177 5.0 0.0 0.00 0.00 0.00 58 1005.1
20260509164011 66 202 1.0 0.0 0.00 0.00 0.00 58 1005.0
20260509162511 66 238 0.0 0.0 0.00 0.00 0.00 60 1005.0
20260509162011 66 196 2.0 0.0 0.00 0.00 0.00 60 1005.0
20260509161511 65 195 0.0 0.0 0.00 0.00 0.00 59 1005.0
20260509161011 65 209 0.0 0.0 0.00 0.00 0.00 59 1005.0
20260509155511 65 116 0.0 0.0 0.00 0.00 0.00 60 1004.8
20260509155012 65 118 0.0 0.0 0.00 0.00 0.00 60 1004.8
20260509154511 65 300 1.0 0.0 0.00 0.00 0.00 60 1004.8
20260509154011 65 204 2.0 0.0 0.00 0.00 0.00 61 1004.6
20260509153511 64 223 0.0 0.0 0.00 0.00 0.00 61 1004.6
20260509153011 64 193 1.0 0.0 0.00 0.00 0.00 61 1004.6
20260509152511 64 172 0.0 0.0 0.00 0.00 0.00 62 1004.7
20260509152012 64 172 0.0 0.0 0.00 0.00 0.00 63 1004.7
20260509151012 64 203 1.0 0.0 0.00 0.00 0.00 63 1004.7
20260509150510 63 203 0.0 0.0 0.00 0.00 0.00 63 1004.7
20260509150011 63 203 0.0 0.0 0.00 0.00 0.00 64 1004.7
20260509145511 63 202 0.0 0.0 0.00 0.00 0.00 62 1004.9
20260509144511 62 202 0.0 0.0 0.00 0.00 0.00 64 1004.9
20260509144010 62 202 0.0 0.0 0.00 0.00 0.00 63 1004.8
20260509143511 62 202 0.0 0.0 0.00 0.00 0.00 63 1004.8
20260509143010 62 202 0.0 0.0 0.00 0.00 0.00 62 1004.8
20260509142511 62 142 0.0 0.0 0.00 0.00 0.00 63 1004.8
20260509142011 62 142 0.0 0.0 0.00 0.00 0.00 63 1004.8
20260509141511 62 142 0.0 0.0 0.00 0.00 0.00 64 1004.8
20260509141010 61 142 0.0 0.0 0.00 0.00 0.00 64 1005.0
20260509140511 61 142 0.0 0.0 0.00 0.00 0.00 67 1005.0
20260509140011 61 143 0.0 0.0 0.00 0.00 0.00 68 1005.0
20260509135511 60 142 0.0 0.0 0.00 0.00 0.00 67 1005.0
20260509135011 60 142 0.0 0.0 0.00 0.00 0.00 66 1005.0
20260509134512 60 142 0.0 0.0 0.00 0.00 0.00 67 1005.0
20260509133012 59 142 0.0 0.0 0.00 0.00 0.00 69 1004.8
20260509132512 59 142 0.0 0.0 0.00 0.00 0.00 68 1004.7
20260509132010 59 141 0.0 0.0 0.00 0.00 0.00 71 1004.7
20260509131010 58 142 0.0 0.0 0.00 0.00 0.00 73 1004.6
20260509130511 58 142 0.0 0.0 0.00 0.00 0.00 73 1004.6
20260509130010 58 143 0.0 0.0 0.00 0.00 0.00 78 1004.6
20260509125510 57 142 0.0 0.0 0.00 0.00 0.00 79 1004.7
20260509125010 57 142 0.0 0.0 0.00 0.00 0.00 80 1004.7
20260509124011 56 142 0.0 0.0 0.00 0.00 0.00 83 1004.8
20260509123511 56 142 0.0 0.0 0.00 0.00 0.00 82 1004.8
20260509123010 56 141 0.0 0.0 0.00 0.00 0.00 83 1004.8
20260509122510 55 141 0.0 0.0 0.00 0.00 0.00 84 1004.8
20260509122010 55 141 0.0 0.0 0.00 0.00 0.00 85 1004.8
20260509121511 55 141 0.0 0.0 0.00 0.00 0.00 86 1004.8
20260509121011 54 142 0.0 0.0 0.00 0.00 0.00 87 1004.6
20260509120510 54 141 0.0 0.0 0.00 0.00 0.00 87 1004.6
20260509115511 54 142 0.0 0.0 0.00 0.00 0.00 88 1004.6
20260509115012 53 142 0.0 0.0 0.00 0.00 0.00 88 1004.6
20260509114510 53 141 0.0 0.0 0.00 0.00 0.00 89 1004.6
20260509113512 52 141 0.0 0.0 0.00 0.00 0.00 90 1004.5
20260509113010 52 141 0.0 0.0 0.00 0.00 0.00 90 1004.5
20260509112510 52 142 0.0 0.0 0.00 0.00 0.00 90 1004.6
20260509112010 51 141 0.0 0.0 0.00 0.00 0.00 90 1004.6
20260509105512 51 142 0.0 0.0 0.00 0.00 0.00 90 1004.5
20260509105010 51 141 0.0 0.0 0.00 0.00 0.00 90 1004.5
20260509103012 52 141 0.0 0.0 0.00 0.00 0.00 90 1004.4
20260509102511 52 141 0.0 0.0 0.00 0.00 0.00 89 1004.4
20260509102013 52 141 0.0 0.0 0.00 0.00 0.00 89 1004.4
20260509101511 52 141 0.0 0.0 0.00 0.00 0.00 89 1004.4
20260509101013 52 141 0.0 0.0 0.00 0.00 0.00 88 1004.3
20260509100511 52 141 0.0 0.0 0.00 0.00 0.00 88 1004.3
20260509100011 52 141 0.0 0.0 0.00 0.00 0.00 88 1004.3
20260509095511 52 141 0.0 0.0 0.00 0.00 0.00 88 1004.4
20260509095011 52 141 0.0 0.0 0.00 0.00 0.00 87 1004.4
20260509094011 52 141 0.0 0.0 0.00 0.00 0.00 87 1004.4
20260509093511 52 141 0.0 0.0 0.00 0.00 0.00 87 1004.4
20260509093011 52 141 0.0 0.0 0.00 0.00 0.00 87 1004.4
20260509092011 52 141 0.0 0.0 0.00 0.00 0.00 86 1004.5
20260509091511 52 141 0.0 0.0 0.00 0.00 0.00 86 1004.5
20260509091011 52 141 0.0 0.0 0.00 0.00 0.00 87 1004.6
20260509090511 52 141 0.0 0.0 0.00 0.00 0.00 87 1004.6
20260509090011 52 141 0.0 0.0 0.00 0.00 0.00 86 1004.6
20260509085511 52 141 0.0 0.0 0.00 0.00 0.00 87 1004.6
20260509085011 52 141 0.0 0.0 0.00 0.00 0.00 87 1004.6
20260509084511 52 141 0.0 0.0 0.00 0.00 0.00 87 1004.6
20260509082511 52 141 0.0 0.0 0.00 0.00 0.00 87 1004.7
20260509082011 52 141 0.0 0.0 0.00 0.00 0.00 87 1004.7
20260509081511 52 141 0.0 0.0 0.00 0.00 0.00 86 1004.7
20260509081011 52 141 0.0 0.0 0.00 0.00 0.00 86 1004.8
20260509080511 52 141 0.0 0.0 0.00 0.00 0.00 86 1004.8
20260509080011 52 141 0.0 0.0 0.00 0.00 0.00 86 1004.8
20260509075511 51 141 0.0 0.0 0.00 0.00 0.00 87 1004.8
20260509075011 51 142 0.0 0.0 0.00 0.00 0.00 86 1004.8
20260509074513 51 141 0.0 0.0 0.00 0.00 0.00 86 1004.8
20260509074011 51 141 0.0 0.0 0.00 0.00 0.00 86 1004.8
20260509073511 51 141 0.0 0.0 0.00 0.00 0.00 86 1004.8
20260509073011 51 141 0.0 0.0 0.00 0.00 0.00 86 1004.8
20260509072011 51 141 0.0 0.0 0.00 0.00 0.00 86 1004.9
20260509071511 51 141 0.0 0.0 0.00 0.00 0.00 86 1004.9
20260509071011 51 141 0.0 0.0 0.00 0.00 0.00 86 1004.9
20260509070512 51 141 0.0 0.0 0.00 0.00 0.00 86 1004.9
20260509070011 51 141 0.0 0.0 0.00 0.00 0.00 86 1004.9
20260509064511 51 141 0.0 0.0 0.00 0.00 0.00 85 1005.0
20260509064010 51 141 0.0 0.0 0.00 0.00 0.00 85 1005.0
20260509063011 51 141 0.0 0.0 0.00 0.00 0.00 85 1005.0
20260509062511 51 141 0.0 0.0 0.00 0.00 0.00 84 1005.0
20260509061511 51 141 0.0 0.0 0.00 0.00 0.00 84 1005.0
20260509061011 51 141 0.0 0.0 0.00 0.00 0.00 84 1005.2
20260509060511 51 141 0.0 0.0 0.00 0.00 0.00 83 1005.2
20260509060011 51 141 0.0 0.0 0.00 0.00 0.00 83 1005.2
20260509055510 52 142 0.0 0.0 0.00 0.00 0.00 83 1005.2
20260509055011 52 141 0.0 0.0 0.00 0.00 0.00 82 1005.2
20260509053010 53 141 0.0 0.0 0.00 0.00 0.00 79 1005.2
20260509052012 53 141 0.0 0.0 0.00 0.00 0.00 79 1005.3
20260509051512 53 141 0.0 0.0 0.00 0.00 0.00 78 1005.3
20260509051010 53 141 0.0 0.0 0.00 0.00 0.00 78 1005.3
20260509050511 53 141 0.0 0.0 0.00 0.00 0.00 78 1005.3
20260509050011 53 141 0.0 0.0 0.00 0.00 0.00 77 1005.3
20260509045511 53 141 0.0 0.0 0.00 0.00 0.00 77 1005.3
20260509044012 54 141 0.0 0.0 0.00 0.00 0.00 76 1005.2
20260509043012 54 141 0.0 0.0 0.00 0.00 0.00 75 1005.2
20260509042510 54 141 0.0 0.0 0.00 0.00 0.00 74 1005.4
20260509042011 54 141 0.0 0.0 0.00 0.00 0.00 75 1005.4
20260509041510 54 141 2.0 0.0 0.00 0.00 0.00 75 1005.4
20260509041010 54 141 0.0 0.0 0.00 0.00 0.00 74 1005.6
20260509040510 54 142 0.0 0.0 0.00 0.00 0.00 74 1005.6
20260509040010 55 141 0.0 0.0 0.00 0.00 0.00 73 1005.6
20260509035510 55 141 0.0 0.0 0.00 0.00 0.00 73 1005.7
20260509035010 55 141 0.0 0.0 0.00 0.00 0.00 73 1005.7
20260509034510 55 141 0.0 0.0 0.00 0.00 0.00 72 1005.7
20260509034010 55 141 1.0 0.0 0.00 0.00 0.00 72 1005.8
20260509033510 55 141 0.0 0.0 0.00 0.00 0.00 71 1005.8
20260509032512 55 141 0.0 0.0 0.00 0.00 0.00 71 1005.8
20260509032010 55 141 0.0 0.0 0.00 0.00 0.00 70 1005.8
20260509031510 55 141 0.0 0.0 0.00 0.00 0.00 71 1005.8
20260509031010 55 141 0.0 0.0 0.00 0.00 0.00 70 1005.8
20260509030510 55 141 0.0 0.0 0.00 0.00 0.00 69 1005.8
20260509030010 56 141 0.0 0.0 0.00 0.00 0.00 68 1005.8
20260509025510 56 141 0.0 0.0 0.00 0.00 0.00 69 1006.0
20260509025012 56 141 2.0 0.0 0.00 0.00 0.00 68 1006.0
20260509024510 56 196 0.0 0.0 0.00 0.00 0.00 67 1006.0
20260509024010 56 196 0.0 0.0 0.00 0.00 0.00 66 1006.2
20260509023510 56 196 0.0 0.0 0.00 0.00 0.00 66 1006.2
20260509023010 56 196 0.0 0.0 0.00 0.00 0.00 66 1006.2
20260509022510 57 196 0.0 0.0 0.00 0.00 0.00 66 1006.2
20260509022010 57 196 0.0 0.0 0.00 0.00 0.00 66 1006.2
20260509021512 57 196 0.0 0.0 0.00 0.00 0.00 63 1006.2
20260509021011 58 196 0.0 0.0 0.00 0.00 0.00 61 1006.2
20260509020511 58 196 0.0 0.0 0.00 0.00 0.00 61 1006.2
20260509015511 59 196 0.0 0.0 0.00 0.00 0.00 59 1005.9
20260509015011 59 196 0.0 0.0 0.00 0.00 0.00 58 1005.9
20260509014511 60 196 0.0 0.0 0.00 0.00 0.00 56 1005.9
20260509014011 60 196 0.0 0.0 0.00 0.00 0.00 56 1005.8
20260509013511 60 196 0.0 0.0 0.00 0.00 0.00 56 1005.8
20260509013011 60 196 0.0 0.0 0.00 0.00 0.00 55 1005.8
20260509012511 60 196 0.0 0.0 0.00 0.00 0.00 55 1005.7
20260509012011 61 196 0.0 0.0 0.00 0.00 0.00 54 1005.7
20260509011511 61 196 0.0 0.0 0.00 0.00 0.00 54 1005.7
20260509011012 61 196 0.0 0.0 0.00 0.00 0.00 54 1006.0
20260509010013 62 196 0.0 0.0 0.00 0.00 0.00 50 1006.0
20260509005011 62 196 0.0 0.0 0.00 0.00 0.00 50 1005.9
20260509004512 63 196 0.0 0.0 0.00 0.00 0.00 50 1005.9
20260509003511 63 196 0.0 0.0 0.00 0.00 0.00 46 1005.9
20260509003012 64 196 0.0 0.0 0.00 0.00 0.00 45 1005.9
20260509002511 64 196 0.0 0.0 0.00 0.00 0.00 45 1005.9
20260509002011 64 196 0.0 0.0 0.00 0.00 0.00 44 1005.9
20260509001511 65 196 0.0 0.0 0.00 0.00 0.00 41 1005.9
20260509001011 66 196 0.0 0.0 0.00 0.00 0.00 39 1004.9
20260509000511 66 196 0.0 0.0 0.00 0.00 0.00 39 1004.9
20260509000011 66 196 0.0 0.0 0.00 0.00 0.00 36 1004.9
20260508235511 67 196 0.0 0.0 0.00 0.00 0.00 35 1005.9
20260508235011 67 196 0.0 0.0 0.00 0.00 0.00 34 1005.9
20260508234011 68 224 3.0 0.0 0.00 0.00 0.00 34 1006.0
20260508233511 68 198 0.0 0.0 0.00 0.00 0.00 33 1006.0
20260508232011 69 191 0.0 0.0 0.00 0.00 0.00 31 1006.1
20260508231511 69 191 7.0 0.0 0.00 0.00 0.00 30 1006.1
20260508230511 69 214 1.0 0.0 0.00 0.00 0.00 29 1005.1
20260508230011 69 207 0.0 0.0 0.00 0.00 0.00 29 1005.1
20260508225512 69 202 0.0 0.0 0.00 0.00 0.00 30 1005.0
20260508225012 69 195 4.0 0.0 0.00 0.00 0.00 31 1005.0
20260508224511 69 185 0.0 0.0 0.00 0.00 0.00 30 1005.0
20260508224011 69 195 0.0 0.0 0.00 0.00 0.00 31 1005.0
20260508223511 70 184 2.0 0.0 0.00 0.00 0.00 30 1005.0
20260508223013 70 196 2.0 0.0 0.00 0.00 0.00 30 1005.0
20260508222511 70 181 1.0 0.0 0.00 0.00 0.00 29 1005.1
20260508222012 70 245 1.0 0.0 0.00 0.00 0.00 30 1005.1
20260508221511 70 189 2.0 0.0 0.00 0.00 0.00 33 1005.1
20260508221011 70 215 3.0 0.0 0.00 0.00 0.00 32 1005.1
20260508220511 70 181 0.0 0.0 0.00 0.00 0.00 30 1005.1
20260508215511 70 206 7.0 0.0 0.00 0.00 0.00 29 1005.2